GCXOGCTS

Guest
Details From GCXO - Tenerife Norte - Los Rodeos
To GCTS - Tenerife Sur
Flight Number -
Tags generated
Created
Modified
Stats Distance 39 nm / 72 km
Max Altitude 2,400 ft / 732 m
Waypoints 3
Social Downloads 0
Likes 0
Share VATSIM

Download

Looking for another format? Having issues loading an existing format? Contact us
Advertisement - Login to hide

Notes

Basic altitude profile: - Ascent Rate: 1800ft/min - Ascent Speed: 180kts - Cruise Altitude: 8000ft - Cruise Speed: 220kts - Descent Rate: 1500ft/min - Descent Speed: 180kts

Route

GCXO TFN GCTS

ID Type Via Altitude Latitude Longitude Leg Dist Tot Dist Heading (true) Name
O GCXO APT - 0 ft / 0 m 28.48266˚ -16.34154˚ - 0 nm - Tenerife Norte - Los Rodeos
TFN VOR - 2,400 ft / 732 m 28.53683˚ -16.26878˚ 5 nm 5 nm 50° / 50° TENERIFE NORTE VOR-DME
O GCTS APT - 0 ft / 0 m 28.04447˚ -16.57249˚ 33 nm 38 nm 209° / 208° Tenerife Sur

Altitude Profile

Advertisement - Login to hide

GCXO

Details ICAO GCXO (TFN)
Name Tenerife Norte - Los Rodeos
Region Canary Islands
Timezone Atlantic/Canary (UTC+0.0)
Stats Elevation 2,076 ft / 633 m (AMSL)
Location 28.482656° -16.341541°
Runways 1
Magnetic Variation 5.002° W

METAR

GCXO 171030Z 34008KT 300V030 9999 FEW010 SCT013 BKN030 14/11 Q1026 NOSIG

Decode

TAF

TAF GCXO 170800Z 1709/1809 01015KT 9999 FEW005 BKN020 TX15/1714Z TN12/1806Z TEMPO 1709/1710 2500 DZ BCFG BKN005

Decode

Departure Runways

ID Width Length Bearing (true) Bearing (mag) Surface Threshold Offset Overrun Length
12 148 ft / 45 m 11,165 ft / 3,403 m 110.67° 115.67° Asphalt 0 ft / 0 m 197 ft / 60 m
30 148 ft / 45 m 11,165 ft / 3,403 m 290.69° 295.69° Asphalt 0 ft / 0 m 197 ft / 60 m

GCTS

Details ICAO GCTS (TFS)
Name Tenerife Sur
Region Canary Islands
Timezone Atlantic/Canary (UTC+0.0)
Stats Elevation 209 ft / 64 m (AMSL)
Location 28.044475° -16.572488°
Runways 1
Magnetic Variation 5.116° W

METAR

GCTS 171030Z 08021KT 9999 BKN044 BKN050 21/11 Q1023 NOSIG

Decode

TAF

TAF GCTS 170800Z 1709/1809 04018KT 9999 FEW030 BKN040 TX22/1714Z TN16/1806Z PROB40 TEMPO 1709/1720 04020G32KT

Decode

Destination Runways

ID Width Length Bearing (true) Bearing (mag) Surface Threshold Offset Overrun Length
08 148 ft / 45 m 10,489 ft / 3,197 m 68.47° 73.59° Asphalt 0 ft / 0 m 0 ft / 0 m
26 148 ft / 45 m 10,489 ft / 3,197 m 248.49° 253.61° Asphalt 0 ft / 0 m 0 ft / 0 m

Approach Navaids

Runway Type Ident Frequency Range Bearing (true) Bearing (mag) Slope Elevation
08 Localiser TRS 109.70 MHz 18 nm / 33 km 68.49° 73.61° - 187 ft / 57 m (AMSL)
08 Glidescope TRS 109.70 MHz 10 nm / 19 km 68.48° 73.60° 3.00° 209 ft / 64 m (AMSL)
26 Localiser ISUR 110.90 MHz 18 nm / 33 km 248.52° 253.63° - 209 ft / 64 m (AMSL)
26 Glidescope ISUR 110.90 MHz 10 nm / 19 km 248.48° 253.60° 3.00° 236 ft / 72 m (AMSL)
26 DME ISUR 110.90 MHz 18 nm / 33 km - - - 236 ft / 72 m (AMSL)

Popular Alternatives